Regional Weather Roundup
Issued by NWS Grand Forks, ND

Home | Current Version | Previous Version | Text Only | Print | Product List | Glossary Off
Versions: 1 2 3 4 5 6 7 8 9 10 11 12 13 14 15 16 17 18 19 20 21 22 23 24 25 26 27 28 29 30 31 32 33 34 35 36 37 38 39 40 41 42 43 44 45 46 47 48 49 50

000
ASUS43 KFGF 080210
RWRFGF
PRAIRIE TO PINES  WEATHER ROUNDUP
NATIONAL WEATHER SERVICE EASTERN NORTH DAKOTA/GRAND FORKS ND
800 PM CST SUN FEB 07 2016

 **SATELLITE DATA USED TO AUGMENT SKY COVER AT AUTOMATED STATIONS**
 *****  WEATHER ACROSS EASTERN NORTH DAKOTA  *****

CITY           SKY/WX    TMP DP  RH WIND       PRES   REMARKS
GRAND FORKS    LGT SNOW  14   8  77 N32G40    30.00R BLWGSNOWWCI  -7
GRAND FRKS AFB LGT SNOW  14   9  79 N25G35    30.00R WCI  -5
GRAND FRKS NWS   N/A     12 N/A N/A N40         N/A  WCI -12
DEVILS LAKE    FLURRIES  19  14  81 N26G37    30.03R WCI   1
FARGO          LGT SNOW  17  12  80 N25G35    29.97S WCI  -1
WAHPETON ARPT  CLOUDY    18  12  79 N21G33    29.95R WCI   1
$$

 ***** WEATHER ACROSS CENTRAL AND WESTERN NORTH DAKOTA  *****

CITY           SKY/WX    TMP DP  RH WIND       PRES   REMARKS
BISMARCK       CLOUDY    36  20  52 N22G32    30.11R
MINOT          FLURRIES  31  16  54 NW26G36   30.13R WCI  17
JAMESTOWN      CLOUDY    23  14  68 N30G39    29.99R WCI   5
MINOT AFB      CLOUDY    29  19  67 NW26G35   30.12R WCI  14
GARRISON         N/A     28  18  66 N30G47    30.13R WCI  12
WILLISTON      CLEAR     31  18  58 NW28G37   30.27R WCI  17
DICKINSON      CLEAR     29  14  53 NW24G33   30.19R WCI  15
HETTINGER      CLEAR     31  14  49 NW28G38   30.21R WCI  17
$$

 *****  OTHER AIRPORT OBSERVATIONS IN OUR AREA  *****

CITY           SKY/WX    TMP DP  RH WIND       PRES   REMARKS
WALHALLA       FAIR      14  10  85 N24G37    30.05R WCI  -5
GRAFTON AIRPOR LGT SNOW  12   9  85 NW28      30.03R WCI  -9
VALLEY CITY AR FLURRIES  19  14  79 N29G45    30.00R WCI   1
CANDO          NOT AVBL
CAVALIER APRT  CLOUDY    14   9  79 N23G32    30.03R HAZE    WCI  -5
GWINNER          N/A     23  19  86 N23G30    29.99R WCI   7
SHEYENNE NWR     N/A     20  16  84 N16       29.95S WCI   6
ROLLA          FLURRIES  18  14  86 N36G47    30.04R WCI  -3
 ***** THE ABOVE OBSERVATIONS ARE NON NWS ARE NOT QUALITY
       CONTROLLED AND MAY MIS-REPORT RAIN FOR SNOW...
$$

  *****  WEATHER ACROSS NORTHERN MINNESOTA  *****

CITY           SKY/WX    TMP DP  RH WIND       PRES   REMARKS
FLAG ISLAND    LGT SNOW   7   1  78 NW21      29.85R WCI -13
WARROAD        LGT SNOW   7   1  78 NW24G31   29.88R VSB 1   WCI -15
ROSEAU         LGT SNOW   7   1  78 NW20      29.90R WCI -13
HALLOCK        SNOW      10   7  85 N25G33    29.98R VSB 1/2 WCI -10
THF RVR FALLS  NOT AVBL
BAUDETTE       LGT SNOW   7   1  76 NW21G31   29.81R WCI -13
WASKISH        LGT SNOW  10   5  79 NW18G24   29.82R WCI  -8
CROOKSTON      HVY SNOW  10   9  92 N35G45    29.97R VSB<1/4 WCI -13
GREENBUSH NDAW   N/A      9   5  85 NW23        N/A  WCI -12
$$
  *****  WEATHER ACROSS CENTRAL AND WEST MINNESOTA  *****

CITY           SKY/WX    TMP DP  RH WIND       PRES   REMARKS
FOSSTON        LGT SNOW   9   5  85 NW17G25   29.89R WCI -10
BEMIDJI        LGT SNOW   9   5  82 NW20G31   29.81R WCI -10
PARK RAPIDS    LGT SNOW  11   4  73 NW21G28   29.80R WCI  -8
ELBOW LAKE     LGT SNOW  15  10  82 NW28G46   29.89R WCI  -5
WADENA         LGT SNOW  10   5  79 NW25G37   29.82R WCI -10
DETROIT LAKES  SNOW      12   9  85 N29G44    29.88R VSB 1/2 WCI  -9
MOORHEAD       LGT SNOW  16  10  79 N22       29.97R WCI  -2
FERGUS FALLS   LGT SNOW  16  10  79 N28G46    29.93R WCI  -4
MORRIS MN      LGT SNOW  19  16  86 N35       29.89R VSB 1   WCI  -1
STAPLES        FLURRIES  10   7  85 NW25G33   29.80R WCI -10
$$
  *****  WEATHER ELSEWHERE ACROSS MINNESOTA  *****

CITY           SKY/WX    TMP DP  RH WIND       PRES   REMARKS
DULUTH         LGT SNOW  24  19  81 NW18G30   29.57R BLWGSNOWWCI  10
INTRNTL FALLS  CLOUDY    19  13  77 N15       29.72R WCI   5
ELY            LGT SNOW  27  27 100 NW8       29.56R WCI  18
CLOQUET        LGT SNOW  23  19  86 W16G23    29.60R WCI  10
WHEATON        LGT SNOW  19  18  93 NW16G28   29.96R WCI   5
BRAINERD       LGT SNOW  14   8  77 NW14      29.75R WCI  -1
HIBBING        LGT SNOW  18  14  86 NW23G31   29.63R FOG     WCI   0
ALEXANDRIA     LGT SNOW  14   8  77 NW22G35   29.83R WCI  -4
SAINT CLOUD    LGT SNOW  17  11  77 NW30G41   29.76S WCI  -3
MINNEAPOLIS    LGT SNOW  23  18  81 NW21G35   29.74R WCI   8
$$

  *****  WEATHER ACROSS SOUTH DAKOTA  *****

CITY           SKY/WX    TMP DP  RH WIND       PRES   REMARKS
SIOUX FALLS    LGT SNOW  25  20  81 NW18      29.95F WCI  11
BROOKINGS      LGT SNOW  22  18  85 N22G33    29.92R FOG     WCI   6
WATERTOWN      LGT SNOW  21  15  78 NW25G36   29.92R WCI   4
HURON          CLOUDY    29  20  69 N26G32    30.01R WCI  14
SISSETON         N/A     20  17  88 N20       29.95R WCI   4
ABERDEEN       CLOUDY    29  18  63 N28G39    30.02R WCI  14
MITCHELL       MOCLDY    31  22  69 N23G36    30.04S WCI  18
PIERRE         CLEAR     33  15  47 NW28G36   30.13R WCI  20
MOBRIDGE       MOCLDY    34  17  50 NW30G39   30.07R WCI  20
RAPID CITY     CLEAR     33   9  36 NW30G46   30.25R WCI  19
$$

  *****  SOME WEATHER IN NEARBY STATES *****

CITY           SKY/WX    TMP DP  RH WIND       PRES   REMARKS
GLASGOW MT     CLEAR     29  18  63 NW15      30.39R WCI  18
GREAT FALLS MT CLOUDY    37  12  35 SW3       30.42F
CHEYENNE WY    CLEAR     21  14  74 N10G18    30.31R WCI  10
SCOTTSBLUFF NE PTCLDY    29  15  56 NW18      30.35R WCI  16
OMAHA NE       CLOUDY    34  28  79 NW23G31   29.98S WCI  22
DES MOINES IA  FLURRIES  36  29  75 NW21G33   29.85F
DAVENPORT IA   CLEAR     33  27  78 W12       29.78F WCI  24
CHICAGO IL     PTCLDY    37  27  67 W12       29.74S
EAU CLAIRE WI  FLURRIES  31  25  78 W21G31    29.62R WCI  18
LA CROSSE WI   CLOUDY    37  30  75 W15G22    29.65F
$$

  *****  SOME NATIONAL WEATHER *****

CITY           SKY/WX    TMP DP  RH WIND       PRES   REMARKS
LA GUARDIA NY  CLOUDY    40  30  67 NE9       29.97F
RALEIGH NC     MOCLDY    42  22  44 N7        29.86S
ATLANTA GA     PTCLDY    46  21  37 W3        29.99S
NEW ORLEANS LA CLEAR     51  33  50 SW12      30.18R
OKLAHOMA CITY  CLEAR     48  24  39 N20G26    30.22R
ALBUQUERQUE NM CLEAR     48  17  29 N15       30.34R
SALT LAKE CITY PTCLDY    30  25  81 N6        30.62R HAZE    WCI  24
LOS ANGELES CA CLEAR     72  24  16 CALM      30.08S
BOISE ID       CLEAR     42  34  73 CALM      30.62S
SEATTLE WA     MOCLDY    47  37  68 NW5       30.52F
$$

*** WEATHER ACROSS MANITOBA...SASKATCHEWAN AND ONTARIO ***
                ***ONTARIO***

CITY           SKY/WX    TMP DP  RH WIND       PRES   REMARKS
GERALDTON      FLURRIES   1  -4  78 E16       29.74F WCI -18
THUNDER BAY    LGT SNOW  16  12  86 N6        29.65R WCI   7
SIOUX LOOKOUT  LGT SNOW   9   5  85 E5        29.74R WCI   0
TORONTO        MOCLDY    39  32  75 E8        29.84F
BIG TROUT LK   CLEAR     -9 -17  70 E8        30.07R WCI -26
PICKLE LAKE    FLURRIES   0  -6  78 E12       29.83R WCI -18
DRYDEN         LGT SNOW  12   9  85 N7        29.72R WCI   2
KENORA         LGT SNOW  10   5  79 NW16G22   29.79R DRFTSNOWWCI  -7
$$
                *** MANITOBA***

CITY           SKY/WX    TMP DP  RH WIND       PRES   REMARKS
BRANDON        CLOUDY    19  12  73 NW23G31   30.08S WCI   2
DAUPHIN        FLURRIES  19  12  73 NW12      30.14R WCI   7
ISLAND LAKE    FLURRIES   0  -6  78 N7        30.03R WCI -13
PILOT MOUND      N/A     16  10  79 N18G28      N/A  WCI  -1
THE PAS        FLURRIES  12   9  85 NW13      30.17R WCI  -3
THOMPSON       NOT AVBL
WINNIPEG       LGT SNOW   9   3  78 N21       30.04R VSB 1   WCI -11
LYNN LAKE      FLURRIES   3  -2  78 NW16      30.13R WCI -16
CHURCHILL      FLURRIES  -9 -15  77 S6        30.19F WCI -23
GILLAM         LGT SNOW  -8 -13  77 NE5       30.11S WCI -19
$$
                ***SASKATCHEWAN***

CITY           SKY/WX    TMP DP  RH WIND       PRES   REMARKS
ESTEVAN        PTCLDY    25  19  80 NW20      30.22R WCI  11
KINDERSLEY     PTCLDY    21  18  86 W10       30.36S WCI  10
LLOYDMINSTER   PTCLDY    25  18  74 W14       30.32S WCI  13
PRINCE ALBERT  CLEAR     21  16  79 N7        30.26R WCI  13
REGINA         PTCLDY    25  19  80 NW16G22   30.28R WCI  12
YORKTON        CLEAR     21  16  79 NW18G29   30.16R WCI   6
N. BATTLEFORD  CLEAR     25  18  74 W8        30.33F WCI  16
LA RONGE       NOT AVBL
SASKATOON      PTCLDY    23  18  80 W10       30.32R WCI  12
SWIFT CURRENT  CLEAR     25  18  74 W14       30.34S WCI  13
$$
NOTE: THESE ARE AUTOMATED STATIONS WITH LIMITED QUALITY CONTROL
      "FAIR" INDICATES FEW OR NO CLOUDS BELOW 12,000 FEET WITH NO
      SIGNIFICANT WEATHER AND/OR OBSTRUCTIONS TO VISIBILITY.
      SKY/WX - SKY CONDITION AND SIGNIFICANT WEATHER.
      TMP - AIR TEMPERATURE.    DP   - DEWPOINT TEMPERATURE.
      RH  - RELATIVE HUMIDITY.  PRES - PRESSURE.
      HX  - HEAT INDEX.         WCI  - WIND CHILL INDEX.
$



USA.gov is the U.S. government's official web portal to all federal, state and local government web resources and services.